CDT,Max TemperatureF,Mean TemperatureF,Min TemperatureF,Max Dew PointF,MeanDew PointF,Min DewpointF,Max Humidity, Mean Humidity, Min Humidity, Max Sea Level PressureIn, Mean Sea Level PressureIn, Min Sea Level PressureIn, Max VisibilityMiles, Mean VisibilityMiles, Min VisibilityMiles, Max Wind SpeedMPH, Mean Wind SpeedMPH, Max Gust SpeedMPH,PrecipitationIn, CloudCover, Events, WindDirDegrees
2011-10-1,69,54,39,41,37,32,93,58,25,30.33,30.26,30.18,10,10,10,8,3,,0.00,0,,50
2011-10-2,73,53,33,43,36,32,100,59,22,30.31,30.25,30.17,10,10,2,7,1,,0.00,0,,138
2011-10-3,80,58,35,43,37,30,100,55,17,30.26,30.21,30.15,10,10,10,7,2,,0.00,0,,151
2011-10-4,86,66,46,45,41,36,87,46,17,30.26,30.20,30.13,10,10,5,9,4,,0.00,0,,155
2011-10-5,82,66,51,46,41,34,82,46,17,30.20,30.14,30.06,10,10,10,14,7,21,0.00,0,,153
2011-10-6,84,68,53,48,44,41,77,46,22,30.12,30.08,30.01,10,10,10,18,8,24,0.00,0,,150
2011-10-7,82,72,62,54,51,50,63,50,32,30.15,30.09,30.05,10,10,10,20,11,28,0.00,1,,146
2011-10-8,84,73,62,55,51,48,72,50,30,30.18,30.13,30.09,10,10,10,18,11,25,0.00,1,,144
2011-10-9,82,70,57,55,51,46,88,56,30,30.20,30.15,30.07,10,10,10,17,9,23,0.00,1,,132
2011-10-10,73,66,59,57,51,46,88,61,52,30.09,30.05,29.99,10,10,10,12,6,,0.00,4,,151
2011-10-11,80,66,51,63,56,50,100,76,34,29.99,29.92,29.82,10,8,0,12,3,20,0.00,4,Fog-Rain,150
2011-10-12,78,68,59,61,57,52,100,75,39,29.82,29.72,29.61,10,10,4,16,6,22,0.00,2,Rain-Thunderstorm,183
2011-10-13,73,63,53,52,42,32,88,52,22,29.83,29.78,29.73,10,10,10,22,10,30,0.00,0,,291
2011-10-14,68,56,44,36,33,28,62,43,24,30.05,29.94,29.82,10,10,10,20,7,25,0.00,0,,276
2011-10-15,73,54,35,41,33,30,93,47,22,30.13,30.04,29.88,10,10,10,14,4,18,0.00,0,,200
2011-10-16,75,64,51,50,42,34,59,45,31,30.02,29.92,29.83,10,10,10,16,10,25,0.00,0,,279
2011-10-17,55,47,39,41,36,32,87,65,41,30.03,29.98,29.91,10,10,10,13,4,20,0.01,5,Rain-Thunderstorm,28
2011-10-18,53,47,39,41,36,28,87,68,38,30.01,29.97,29.94,10,10,10,20,9,25,0.00,5,Rain,313
2011-10-19,48,40,32,32,31,30,93,70,54,29.99,29.97,29.94,10,10,10,20,9,26,0.00,6,,305
2011-10-20,53,42,32,32,29,27,87,60,38,30.11,30.02,29.97,10,10,10,16,8,23,0.00,1,,285
2011-10-21,68,48,28,36,31,27,93,56,24,30.20,30.12,30.08,10,10,10,13,3,17,0.00,0,,178
2011-10-22,73,56,39,41,36,34,87,51,23,30.12,30.07,30.00,10,10,5,7,3,,0.00,0,,161
2011-10-23,77,60,42,43,40,37,87,49,24,30.02,29.98,29.94,10,10,10,10,4,17,0.00,1,,210
2011-10-24,80,60,41,48,43,34,100,57,20,30.17,30.08,30.01,10,10,1,14,6,18,0.00,0,,167
2011-10-25,84,72,60,54,50,39,68,49,30,30.01,29.84,29.71,10,10,10,30,15,41,0.00,1,,190
2011-10-26,59,52,44,43,41,37,93,72,54,30.02,29.98,29.88,10,10,10,17,8,33,0.03,4,Rain,341
2011-10-27,55,48,41,43,35,25,93,63,33,30.17,30.10,30.04,10,10,10,12,6,17,0.00,3,Rain,331
2011-10-28,60,44,28,36,27,19,100,60,22,30.24,30.19,30.11,10,10,10,16,4,25,0.00,0,,273
2011-10-29,68,48,28,30,26,23,87,48,18,30.20,30.10,29.98,10,10,10,18,6,26,0.00,0,,182
2011-10-30,62,52,42,32,30,25,57,42,27,30.09,30.03,29.98,10,10,10,20,11,24,0.00,0,,225
2011-10-31,69,50,32,32,28,23,80,43,21,30.15,30.07,30.00,10,10,10,14,5,18,0.00,0,,182